[[[{"header":{"parameterUnit":"kt","parameterCategory":2,"dx":1,"dy":1,"la1":30.253999710083008,"la2":30.299108505249023,"lo1":-89.0895004272461,"lo2":-89.04439544677734,"nx":28,"ny":28,"refTime":"2022-10-29T21:00:00:Z","depth":"0","parameterNumber":2,"parameterNumberName":"U-component_of_CURRENTS"},"data":[0.3026,0.3069,0.3174,0.3372,0.3547,0.3696,0.3803,0.3793,0.3736,0.3352,0.293,0.2757,0.2077,0.1109,0.0384,0.0363,0.0416,0.0253,0.0643,0.0992,0.113,0.1262,0.1047,-0.0043,-0.0043,-0.0266,-0.0269,-0.0271,0.3132,0.3201,0.3349,0.3591,0.3741,0.3941,0.4181,0.4202,0.422,0.4167,0.4143,0.3542,0.3016,0.2674,0.1909,0.1603,0.1681,0.152,0.1419,0.1522,0.221,0.1995,0.1089,0.1089,0.1089,0.109,0.109,0.1091,0.3322,0.3342,0.3515,0.3716,0.3921,0.4135,0.4233,0.441,0.4521,0.4554,0.4737,0.4555,0.4147,0.3917,0.385,0.3169,0.363,0.2925,0.3005,0.3102,0.2892,0.3679,0.3206,0.3213,0.3219,0.3225,0.3229,0,0.3513,0.3609,0.3706,0.3923,0.4093,0.43,0.4522,0.4594,0.4878,0.4925,0.5013,0.504,0.4986,0.4695,0.4625,0.4587,0.4414,0.4551,0.4341,0.3475,0.3377,0.3389,0.4477,0.4038,0.405,0.4059,0.4066,0.407,0.3809,0.379,0.407,0.417,0.4289,0.4456,0.46,0.4865,0.4967,0.5171,0.5203,0.5301,0.5356,0.5398,0.5318,0.5324,0.5341,0.4835,0.4779,0.4465,0.4524,0.4572,0.4558,0.42,0.4183,0.417,0.4159,0,0.3999,0.4137,0.4202,0.4457,0.4557,0.4613,0.4926,0.4994,0.5138,0.5242,0.527,0.5461,0.5552,0.5712,0.5859,0.582,0.5601,0.582,0.5298,0.5253,0.4695,0.4724,0.4297,0.4229,0.5502,0.5494,0.5487,0,0.434,0.4356,0.4609,0.4622,0.4699,0.4928,0.4999,0.5154,0.5312,0.5395,0.5543,0.5596,0.5785,0.5871,0.6005,0.5969,0.6102,0.5958,0.5982,0.5565,0.551,0.5236,0.5244,0.625,0.6251,0.6251,0.6251,0,0.4564,0.4742,0.4733,0.4811,0.5077,0.5112,0.5266,0.5442,0.553,0.5632,0.5683,0.5761,0.5832,0.5911,0.6096,0.614,0.6172,0.6273,0.6068,0.6054,0.5597,0.5542,0.5036,0.6251,0.6251,0.6251,0.6252,0,0.4851,0.494,0.4947,0.5165,0.5203,0.5294,0.5446,0.556,0.5706,0.5786,0.5842,0.5952,0.6005,0.6112,0.6193,0.6213,0.6283,0.6359,0.6361,0.6092,0.6196,0.5676,0.5427,0.5142,0.6445,0.6446,0.6447,0,0.4997,0.5056,0.5226,0.5305,0.5352,0.5572,0.566,0.5799,0.5923,0.6002,0.6092,0.6162,0.6265,0.6301,0.6327,0.6434,0.6421,0.6457,0.6496,0.6495,0.6241,0.6107,0.5586,0.5482,0.6463,0.6462,0.6461,0,0.5123,0.5352,0.5357,0.5432,0.5657,0.573,0.5824,0.594,0.5975,0.6132,0.6144,0.6275,0.6326,0.6366,0.6457,0.6475,0.6456,0.6539,0.6541,0.6512,0.6443,0.6169,0.6133,0.6513,0.651,0.6509,0.6473,0,0.5403,0.547,0.5465,0.5632,0.573,0.5764,0.5961,0.6041,0.6152,0.6255,0.6306,0.6437,0.6502,0.656,0.6628,0.6602,0.6618,0.6675,0.6687,0.6649,0.6646,0.6635,0.6771,0.6772,0.6773,0.6773,0,0,0.548,0.5555,0.5704,0.5765,0.5831,0.6018,0.6041,0.6153,0.6316,0.6331,0.6405,0.6543,0.6629,0.6651,0.6668,0.6731,0.6727,0.6704,0.6684,0.6674,0.6665,0.6658,0.6647,0.6775,0.6775,0.6775,0.6776,0,0.5587,0.5702,0.57,0.5813,0.5949,0.6063,0.6074,0.6233,0.6291,0.6399,0.647,0.6525,0.6658,0.6701,0.6741,0.6744,0.676,0.6772,0.6687,0.6693,0.6682,0.6672,0.6663,0.6653,0.6778,0.6777,0.6777,0,0.5712,0.5819,0.5834,0.5994,0.6077,0.6155,0.6238,0.6289,0.6352,0.6456,0.654,0.6608,0.6686,0.6743,0.6766,0.6779,0.6785,0.6817,0.6814,0.6748,0.6753,0.6741,0.673,0.6859,0.686,0.686,0,0,0.5785,0.5828,0.5999,0.6024,0.607,0.6213,0.626,0.6333,0.6423,0.6459,0.655,0.662,0.6678,0.6713,0.677,0.6819,0.6808,0.6825,0.6821,0.6818,0.6751,0.6754,0.6744,0.686,0.686,0.686,0,0,0.5801,0.5966,0.6046,0.6085,0.6197,0.6339,0.6342,0.6424,0.6504,0.6494,0.6596,0.6616,0.6661,0.6706,0.67,0.6773,0.6791,0.6794,0.6746,0.6742,0.6738,0.6643,0.6747,0,0,0,0,0,0.596,0.5949,0.6022,0.6049,0.6224,0.6321,0.6346,0.6437,0.6462,0.6478,0.6555,0.6583,0.6723,0.672,0.6738,0.6738,0.6861,0.6861,0.6861,0.6809,0.6804,0.68,0,0,0,0,0,0,0.5972,0.6004,0.6021,0.6161,0.6202,0.6322,0.6381,0.6408,0.6462,0.647,0.6573,0.6587,0.6649,0.6715,0.673,0.6728,0.6742,0.6861,0.6861,0.6861,0.6807,0.6804,0.68,0,0,0,0,0,0.5981,0.6008,0.626,0.6163,0.6198,0.6326,0.638,0.6403,0.6449,0.655,0.6567,0.6509,0.6648,0.6665,0.6724,0.672,0.6732,0.6737,0.6861,0.6861,0.6861,0.6806,0,0,0,0,0,0,0.5988,0.6039,0.627,0.6285,0.615,0.6321,0.6349,0.6398,0.6526,0.6545,0.6489,0.6494,0.6648,0.6661,0.6673,0.6713,0.6723,0.6729,0.6733,0.6861,0.6861,0.686,0,0,0,0,0,0,0.6025,0.6051,0.6278,0.6257,0.627,0.6316,0.6341,0.6399,0.6524,0.6458,0.6467,0.6489,0.6604,0.6658,0.6668,0.6758,0.6717,0.6722,0.6726,0.6728,0.6861,0.6861,0,0,0,0,0,0,0.6038,0.606,0.6254,0.6264,0.6276,0.6451,0.6367,0.6528,0.6548,0.645,0.6547,0.6546,0.6598,0.6612,0.6664,0.675,0.6756,0.6717,0.6721,0.6723,0.6725,0,0,0,0,0,0,0,0.6048,0.5874,0.6178,0.627,0.6281,0.642,0.6424,0.6429,0.6548,0.6547,0.6547,0.6547,0.6686,0.6692,0.6698,0.6743,0,0,0.6717,0.6719,0,0,0,0,0,0,0,0,0.5868,0.5873,0.6179,0.6182,0.6184,0.6421,0.6424,0.6428,0.6548,0.6547,0.6547,0.6547,0.6688,0.6693,0.6697,0,0,0,0,0,0,0,0,0,0,0,0,0,0,0,0.6179,0.6181,0,0.6421,0.6424,0.6427,0.6548,0.6547,0.6547,0.6547,0.6689,0.6693,0.6697,0,0,0,0,0,0,0,0,0,0,0,0,0,0,0,0,0,0,0,0,0,0,0,0,0,0,0,0,0,0,0,0,0,0,0,0,0,0,0,0,0,0,0,0,0,0,0,0,0,0,0,0,0,0,0,0,0,0,0,0,0,0,0,0,0,0,0,0,0]}],[{"header":{"parameterUnit":"kt","parameterCategory":2,"dx":1,"dy":1,"la1":30.253999710083008,"la2":30.299108505249023,"lo1":-89.0895004272461,"lo2":-89.04439544677734,"nx":28,"ny":28,"refTime":"2022-10-29T21:00:00:Z","depth":"0","parameterNumber":3,"parameterNumberName":"V-component_of_CURRENTS"},"data":[0.0312,0.0429,0.0472,0.066,0.0726,0.0831,0.0877,0.1011,0.1186,0.1577,0.1844,0.202,0.1962,0.1974,0.1911,0.1863,0.179,0.1865,0.1798,0.1507,0.1453,0.1403,0.1373,0.1905,0.1905,0.204,0.2041,0.2042,0.0239,0.0303,0.0398,0.0491,0.059,0.0564,0.0641,0.0707,0.0887,0.1143,0.1346,0.1641,0.1794,0.1748,0.1703,0.1661,0.1525,0.1601,0.1475,0.1468,0.1229,0.1209,0.1715,0.1715,0.1715,0.1715,0.1714,0.1714,0.0116,0.0179,0.0237,0.0312,0.037,0.0436,0.0481,0.0532,0.0644,0.0807,0.086,0.1122,0.1227,0.1355,0.1304,0.1258,0.113,0.1136,0.109,0.1046,0.1079,0.0861,0.1267,0.1266,0.1264,0.1263,0.1262,0,-0.0003,0.0012,0.0046,0.0127,0.0167,0.0193,0.021,0.0258,0.0208,0.0311,0.0471,0.0589,0.0763,0.0897,0.0961,0.0896,0.0593,0.0636,0.0623,0.0566,0.0604,0.0616,0.0172,0.0555,0.055,0.0545,0.0542,0.054,-0.0158,-0.0107,-0.0105,-0.0068,-0.0083,-0.0065,-0.0044,-0.0126,-0.0088,-0.0036,0.0039,0.0171,0.0293,0.044,0.0373,0.0418,0.0273,0.0495,0.0259,0.032,0.0266,0.0215,0.0229,0.0477,0.0485,0.0491,0.0497,0,-0.0255,-0.0276,-0.0231,-0.0278,-0.0289,-0.0254,-0.0297,-0.0261,-0.0301,-0.0218,-0.0201,-0.0241,-0.0123,-0.02,-0.0187,-0.0271,-0.0124,-0.0156,-0.0014,0.0004,0.0166,0.0119,0.0495,0.0557,0.0137,0.0144,0.015,0,-0.042,-0.0391,-0.0432,-0.0407,-0.0373,-0.0471,-0.0432,-0.049,-0.0512,-0.046,-0.0588,-0.0511,-0.0664,-0.0598,-0.0683,-0.054,-0.0603,-0.0587,-0.0581,-0.0531,-0.0511,-0.048,-0.0528,-0.0814,-0.0817,-0.0819,-0.0821,0,-0.0521,-0.0559,-0.0511,-0.0532,-0.0608,-0.0608,-0.0665,-0.0731,-0.0736,-0.0754,-0.072,-0.0779,-0.0751,-0.0793,-0.0833,-0.0953,-0.073,-0.0921,-0.0712,-0.0697,-0.0578,-0.0557,-0.0283,-0.0825,-0.0825,-0.0826,-0.0827,0,-0.066,-0.0655,-0.0624,-0.0664,-0.0673,-0.0715,-0.0752,-0.0815,-0.0877,-0.091,-0.0948,-0.1019,-0.1022,-0.1136,-0.1098,-0.1176,-0.1167,-0.1181,-0.1172,-0.1006,-0.1099,-0.0698,-0.0478,-0.0463,-0.1083,-0.1086,-0.1089,0,-0.0728,-0.07,-0.0749,-0.0772,-0.0769,-0.0871,-0.0925,-0.0998,-0.1067,-0.1093,-0.1178,-0.1222,-0.1351,-0.1356,-0.1368,-0.1403,-0.1333,-0.1468,-0.1344,-0.1337,-0.1133,-0.0967,-0.0859,-0.0546,-0.113,-0.1126,-0.1123,0,-0.0759,-0.0788,-0.0785,-0.0777,-0.088,-0.0922,-0.1001,-0.1068,-0.1059,-0.1207,-0.1185,-0.1369,-0.1391,-0.1456,-0.1546,-0.1531,-0.1397,-0.1581,-0.1583,-0.1398,-0.1237,-0.1047,-0.1,-0.1486,-0.1483,-0.148,-0.1155,0,-0.0789,-0.0795,-0.0812,-0.0836,-0.0899,-0.0943,-0.1028,-0.1102,-0.1163,-0.1223,-0.1308,-0.1455,-0.1547,-0.1613,-0.1688,-0.1668,-0.164,-0.1738,-0.1735,-0.1697,-0.1563,-0.1536,-0.1871,-0.1873,-0.1875,-0.1876,0,0,-0.0796,-0.0785,-0.083,-0.0844,-0.0874,-0.0965,-0.0985,-0.1075,-0.1224,-0.1243,-0.1293,-0.1501,-0.1626,-0.1695,-0.1709,-0.1811,-0.1757,-0.179,-0.1749,-0.1735,-0.1722,-0.159,-0.1564,-0.1879,-0.1879,-0.188,-0.188,0,-0.0781,-0.0807,-0.0798,-0.0851,-0.0906,-0.0973,-0.098,-0.109,-0.1138,-0.1269,-0.1336,-0.1421,-0.1648,-0.1707,-0.1768,-0.1828,-0.1812,-0.1885,-0.179,-0.1764,-0.1748,-0.1734,-0.1601,-0.1576,-0.1884,-0.1884,-0.1884,0,-0.0766,-0.0775,-0.078,-0.0842,-0.0904,-0.0957,-0.0985,-0.1056,-0.1101,-0.1222,-0.1349,-0.1449,-0.1585,-0.171,-0.1774,-0.1785,-0.1832,-0.191,-0.1906,-0.1852,-0.1824,-0.1808,-0.1793,-0.197,-0.1969,-0.1969,0,0,-0.0749,-0.0751,-0.0807,-0.0842,-0.0867,-0.0953,-0.1005,-0.1044,-0.1149,-0.1202,-0.1323,-0.1442,-0.1552,-0.1626,-0.1752,-0.1884,-0.1842,-0.1914,-0.191,-0.1906,-0.1852,-0.1823,-0.1809,-0.1968,-0.1968,-0.1967,0,0,-0.0759,-0.0775,-0.0775,-0.0809,-0.0883,-0.0996,-0.1048,-0.108,-0.1209,-0.1206,-0.1328,-0.1368,-0.1495,-0.1588,-0.1552,-0.1739,-0.1764,-0.1776,-0.1664,-0.1661,-0.1658,-0.1552,-0.1602,0,0,0,0,0,-0.074,-0.0762,-0.076,-0.077,-0.088,-0.0985,-0.1012,-0.1081,-0.1073,-0.1126,-0.1231,-0.1276,-0.1586,-0.1558,-0.1602,-0.1617,-0.1948,-0.1951,-0.1955,-0.1843,-0.1839,-0.1835,0,0,0,0,0,0,-0.0744,-0.0753,-0.076,-0.0856,-0.0882,-0.0984,-0.099,-0.1014,-0.107,-0.1075,-0.1255,-0.1282,-0.1373,-0.1543,-0.1581,-0.1592,-0.159,-0.1949,-0.1952,-0.1955,-0.1842,-0.1838,-0.1835,0,0,0,0,0,-0.0747,-0.0755,-0.0892,-0.0861,-0.0884,-0.0979,-0.0988,-0.1008,-0.1071,-0.1211,-0.124,-0.1111,-0.1372,-0.1411,-0.1566,-0.1571,-0.1564,-0.1578,-0.1951,-0.1953,-0.1956,-0.184,0,0,0,0,0,0,-0.075,-0.0821,-0.0901,-0.0914,-0.0829,-0.0978,-0.0996,-0.1003,-0.1208,-0.1232,-0.1073,-0.1075,-0.1373,-0.1403,-0.1432,-0.1556,-0.1543,-0.1557,-0.1566,-0.1953,-0.1955,-0.1956,0,0,0,0,0,0,-0.0817,-0.0831,-0.0908,-0.0864,-0.0873,-0.0976,-0.0991,-0.1141,-0.1212,-0.1064,-0.1068,-0.1071,-0.1326,-0.1397,-0.1421,-0.1654,-0.1527,-0.154,-0.155,-0.1556,-0.1954,-0.1956,0,0,0,0,0,0,-0.0826,-0.0839,-0.0862,-0.0869,-0.0878,-0.1041,-0.1117,-0.1234,-0.114,-0.1057,-0.1134,-0.1131,-0.132,-0.1346,-0.1412,-0.1636,-0.165,-0.1527,-0.1537,-0.1543,-0.1547,0,0,0,0,0,0,0,-0.0834,-0.0706,-0.0804,-0.0874,-0.0881,-0.1029,-0.1034,-0.104,-0.1139,-0.1137,-0.1135,-0.1132,-0.145,-0.1465,-0.148,-0.1621,0,0,-0.1526,-0.1533,0,0,0,0,0,0,0,0,-0.0705,-0.0706,-0.0805,-0.0806,-0.0808,-0.1029,-0.1034,-0.1038,-0.1139,-0.1137,-0.1135,-0.1133,-0.1454,-0.1466,-0.1478,0,0,0,0,0,0,0,0,0,0,0,0,0,0,0,-0.0805,-0.0806,0,-0.103,-0.1034,-0.1037,-0.1139,-0.1137,-0.1135,-0.1134,-0.1457,-0.1467,-0.1477,0,0,0,0,0,0,0,0,0,0,0,0,0,0,0,0,0,0,0,0,0,0,0,0,0,0,0,0,0,0,0,0,0,0,0,0,0,0,0,0,0,0,0,0,0,0,0,0,0,0,0,0,0,0,0,0,0,0,0,0,0,0,0,0,0,0,0,0,0]}]],[[{"header":{"parameterUnit":"kt","parameterCategory":2,"dx":1,"dy":1,"la1":30.253999710083008,"la2":30.299108505249023,"lo1":-89.0895004272461,"lo2":-89.04439544677734,"nx":28,"ny":28,"refTime":"2022-10-29T21:00:00:Z","depth":"2","parameterNumber":2,"parameterNumberName":"U-component_of_CURRENTS"},"data":[0.2156,0.2118,0.2114,0.1983,0.2003,0.1899,0.1849,0.17,0.1559,0.1249,0.109,0.109,0.1129,0.0744,0.0686,0.0522,0.0934,0.0465,0.119,0.1612,0.17,0.1958,0.1847,0,0,0,0,0,0.2197,0.2224,0.2239,0.2246,0.2191,0.2316,0.229,0.2204,0.2043,0.1938,0.1848,0.1508,0.1253,0.1281,0.1018,0.0962,0.1136,0.0933,0.1213,0.131,0.1399,0.1265,0.0432,0.043,0.0428,0.0426,0,0,0.2302,0.23,0.2354,0.2396,0.2439,0.2425,0.2444,0.2481,0.2467,0.2396,0.2471,0.2281,0.2247,0.1845,0.1745,0.169,0.1984,0.1982,0.2033,0.2093,0.1976,0.1777,0.134,0.1344,0.1348,0.1351,0.1353,0,0.2376,0.2415,0.2475,0.2518,0.26,0.2682,0.2807,0.2805,0.2986,0.3013,0.2951,0.2907,0.2775,0.2536,0.2391,0.2386,0.2794,0.2535,0.3268,0.2872,0.2691,0.2642,0.2683,0.2455,0.2466,0.2473,0.2479,0.2483,0.245,0.2482,0.2609,0.2643,0.2738,0.2866,0.2957,0.3185,0.3223,0.3366,0.3343,0.3358,0.3281,0.3208,0.3167,0.313,0.3427,0.2792,0.292,0.3467,0.341,0.3422,0.3431,0.2597,0.2582,0.257,0.2561,0,0.2478,0.2576,0.2656,0.2825,0.2895,0.2961,0.32,0.3264,0.3436,0.3502,0.3543,0.3687,0.3673,0.3793,0.3904,0.388,0.3864,0.3749,0.3368,0.3251,0.351,0.3502,0.3393,0.3378,0.3365,0.3354,0.3345,0,0.2554,0.2626,0.2754,0.2818,0.2927,0.3105,0.3237,0.337,0.3542,0.3594,0.3788,0.3816,0.407,0.4085,0.4182,0.4046,0.4268,0.4013,0.394,0.3724,0.3661,0.4323,0.4303,0.4505,0.4506,0.4507,0.4508,0,0.2525,0.2709,0.2796,0.2881,0.3083,0.3178,0.3293,0.3465,0.3554,0.371,0.3762,0.3986,0.4044,0.4196,0.4217,0.4288,0.4297,0.4393,0.4016,0.398,0.369,0.3618,0.4509,0.4509,0.451,0.451,0.4511,0,0.2618,0.2673,0.2815,0.2992,0.3048,0.3161,0.3326,0.3445,0.3608,0.3685,0.3854,0.3921,0.411,0.4138,0.4311,0.4286,0.4295,0.4311,0.4306,0.3869,0.3734,0.3317,0.3343,0.4134,0.4133,0.4132,0.413,0,0.2566,0.2685,0.2778,0.2939,0.3021,0.3161,0.3277,0.3406,0.3499,0.3604,0.3759,0.387,0.3949,0.4007,0.4143,0.4172,0.4237,0.4218,0.4131,0.4126,0.3707,0.3818,0.3531,0.3352,0.4114,0.4116,0.4117,0,0.2502,0.2668,0.2685,0.2762,0.2947,0.3008,0.3159,0.3286,0.3361,0.3516,0.3625,0.3835,0.3879,0.3929,0.3977,0.4073,0.4189,0.4021,0.4021,0.3908,0.4254,0.3839,0.3809,0.4238,0.4243,0.4247,0.4104,0,0.2592,0.2628,0.2672,0.2768,0.2851,0.2966,0.3073,0.3155,0.3234,0.3298,0.3478,0.3561,0.3671,0.3741,0.3738,0.3927,0.3824,0.3835,0.3722,0.39,0.3804,0.3815,0.3634,0.363,0.3628,0.3625,0,0,0.2522,0.2544,0.2548,0.2633,0.2721,0.2799,0.29,0.2964,0.3084,0.3135,0.3154,0.3346,0.3386,0.354,0.363,0.3631,0.3597,0.3578,0.3818,0.3839,0.3859,0.3778,0.3792,0.362,0.3619,0.3618,0.3618,0,0.2531,0.2512,0.2514,0.2602,0.2721,0.2761,0.2811,0.2915,0.2974,0.3083,0.3111,0.323,0.3285,0.3357,0.3393,0.3575,0.3479,0.3603,0.3707,0.3791,0.3817,0.3839,0.3764,0.3779,0.3611,0.3611,0.3611,0,0.252,0.2525,0.2513,0.2555,0.2627,0.2714,0.272,0.2823,0.2906,0.2868,0.2983,0.3028,0.3061,0.3171,0.3223,0.3166,0.3346,0.3302,0.3318,0.3307,0.3386,0.3417,0.3444,0.3083,0.3081,0.308,0,0,0.2525,0.2496,0.2561,0.2563,0.2609,0.2687,0.273,0.2785,0.2848,0.2878,0.2902,0.2952,0.3018,0.3048,0.3084,0.3154,0.3112,0.3238,0.3263,0.3284,0.3284,0.3368,0.3399,0.3074,0.3073,0.3073,0,0,0.2548,0.2556,0.2573,0.2549,0.2639,0.2702,0.2745,0.2785,0.2842,0.2868,0.2853,0.2859,0.2977,0.2951,0.2872,0.3072,0.2971,0.2985,0.3078,0.3108,0.3132,0.3124,0.2799,0,0,0,0,0,0.2582,0.2549,0.2564,0.2569,0.2597,0.2683,0.2693,0.2751,0.2777,0.2815,0.2855,0.2812,0.2935,0.2862,0.2858,0.2961,0.2991,0.3006,0.302,0.3157,0.3189,0.3217,0,0,0,0,0,0,0.2585,0.2586,0.2567,0.2617,0.2627,0.268,0.268,0.2694,0.2775,0.2785,0.2807,0.281,0.2785,0.286,0.2857,0.2958,0.28,0.2997,0.301,0.3021,0.3168,0.3195,0.3218,0,0,0,0,0,0.2588,0.2589,0.2609,0.2619,0.2627,0.2706,0.2681,0.2693,0.2759,0.2753,0.276,0.2815,0.2783,0.2784,0.2858,0.2962,0.2801,0.28,0.3005,0.3015,0.3024,0.3181,0,0,0,0,0,0,0.259,0.2585,0.2613,0.262,0.2641,0.2708,0.2714,0.2692,0.2721,0.2733,0.2752,0.2758,0.2781,0.2782,0.2783,0.2969,0.2802,0.2801,0.2801,0.3013,0.302,0.3027,0,0,0,0,0,0,0.2587,0.2589,0.2616,0.264,0.265,0.2709,0.2715,0.2698,0.2719,0.2716,0.2724,0.2754,0.2783,0.2781,0.2781,0.2754,0.2803,0.2802,0.2802,0.2801,0.3019,0.3025,0,0,0,0,0,0,0.259,0.2592,0.2637,0.2645,0.2654,0.2729,0.2695,0.2713,0.2764,0.2711,0.277,0.2773,0.2781,0.2782,0.278,0.2752,0.2753,0.2803,0.2803,0.2802,0.2802,0,0,0,0,0,0,0,0.2593,0.2552,0.2586,0.2649,0.2657,0.2692,0.2692,0.2692,0.2765,0.2767,0.277,0.2772,0.2808,0.2807,0.2806,0.275,0,0,0.2803,0.2803,0,0,0,0,0,0,0,0,0.2554,0.2553,0.2587,0.2589,0.2592,0.2692,0.2692,0.2692,0.2765,0.2767,0.2769,0.2771,0.2807,0.2807,0.2806,0,0,0,0,0,0,0,0,0,0,0,0,0,0,0,0.2587,0.2589,0,0.2692,0.2692,0.2692,0.2765,0.2767,0.2769,0.277,0.2807,0.2807,0.2806,0,0,0,0,0,0,0,0,0,0,0,0,0,0,0,0,0,0,0,0,0,0,0,0,0,0,0,0,0,0,0,0,0,0,0,0,0,0,0,0,0,0,0,0,0,0,0,0,0,0,0,0,0,0,0,0,0,0,0,0,0,0,0,0,0,0,0,0,0]}],[{"header":{"parameterUnit":"kt","parameterCategory":2,"dx":1,"dy":1,"la1":30.253999710083008,"la2":30.299108505249023,"lo1":-89.0895004272461,"lo2":-89.04439544677734,"nx":28,"ny":28,"refTime":"2022-10-29T21:00:00:Z","depth":"2","parameterNumber":3,"parameterNumberName":"V-component_of_CURRENTS"},"data":[0.0413,0.0522,0.0585,0.0867,0.1021,0.1304,0.1468,0.1619,0.1711,0.1738,0.1664,0.167,0.1486,0.1242,0.1093,0.0928,0.0898,0.087,0.0968,0.1031,0.1038,0.0951,0.0943,0,0,0,0,0,0.0386,0.0451,0.0601,0.0806,0.0999,0.1096,0.1399,0.1536,0.1724,0.1781,0.185,0.1648,0.1526,0.1344,0.1056,0.0906,0.0892,0.0817,0.0847,0.0855,0.0862,0.0849,0.0785,0.0784,0.0783,0.0782,0,0,0.0341,0.0405,0.0518,0.0693,0.0877,0.1101,0.1252,0.144,0.1621,0.1764,0.1809,0.1786,0.1659,0.1374,0.124,0.1035,0.1051,0.0929,0.0933,0.0937,0.0927,0.0854,0.0884,0.0884,0.0884,0.0884,0.0884,0,0.0321,0.0356,0.0445,0.0633,0.0778,0.0969,0.1153,0.127,0.1422,0.1533,0.1666,0.1709,0.1626,0.1509,0.1315,0.1212,0.1078,0.1037,0.1097,0.1005,0.0929,0.0888,0.0879,0.0981,0.0981,0.0982,0.0982,0.0982,0.0293,0.0338,0.0502,0.0598,0.0652,0.0805,0.0937,0.1046,0.12,0.1335,0.145,0.1484,0.1558,0.1468,0.1326,0.1203,0.1178,0.1061,0.099,0.0948,0.0908,0.0896,0.0885,0.0989,0.0988,0.0988,0.0987,0,0.0293,0.0338,0.0452,0.059,0.0646,0.0739,0.0906,0.104,0.11,0.1279,0.1318,0.1389,0.1395,0.1354,0.133,0.1199,0.1159,0.1119,0.1059,0.1025,0.0899,0.0886,0.1009,0.1007,0.1006,0.1005,0.1004,0,0.0301,0.037,0.0472,0.0505,0.0649,0.0702,0.0859,0.0927,0.1056,0.1191,0.1211,0.1319,0.1265,0.1287,0.1187,0.1099,0.1177,0.0992,0.0964,0.0951,0.0938,0.0969,0.0953,0.1101,0.1101,0.1101,0.1102,0,0.0289,0.0384,0.0455,0.0481,0.06,0.0661,0.0728,0.0856,0.0941,0.1075,0.1132,0.1207,0.1216,0.1201,0.1091,0.1035,0.1104,0.1036,0.0942,0.0932,0.0947,0.0933,0.1102,0.1102,0.1102,0.1102,0.1102,0,0.0267,0.033,0.0395,0.0523,0.0541,0.0588,0.0746,0.0803,0.0929,0.0946,0.1011,0.1023,0.1082,0.0973,0.099,0.0939,0.0878,0.0851,0.0851,0.0807,0.0709,0.0689,0.0791,0.0765,0.0763,0.0762,0.076,0,0.0253,0.0315,0.0337,0.0418,0.0456,0.0479,0.056,0.0624,0.066,0.0748,0.0773,0.0841,0.0726,0.0738,0.0763,0.0746,0.0773,0.0721,0.0737,0.0738,0.0665,0.0772,0.0765,0.0763,0.0736,0.0739,0.0741,0,0.0239,0.0281,0.0285,0.0332,0.0347,0.037,0.0433,0.05,0.0579,0.0537,0.0646,0.066,0.063,0.0662,0.0641,0.0679,0.0724,0.059,0.0592,0.0567,0.0802,0.0741,0.075,0.0717,0.0722,0.0725,0.0722,0,0.0238,0.0274,0.0271,0.0315,0.0327,0.0315,0.0335,0.0347,0.033,0.0343,0.0412,0.0404,0.0458,0.0447,0.042,0.0534,0.0469,0.0467,0.0433,0.0518,0.0496,0.0511,0.0322,0.0321,0.032,0.032,0,0,0.0221,0.0263,0.0258,0.0272,0.0281,0.0239,0.0257,0.0261,0.0232,0.0265,0.02,0.0272,0.0256,0.0384,0.0392,0.037,0.0358,0.0333,0.0465,0.0481,0.0496,0.0481,0.0497,0.0318,0.0318,0.0318,0.0317,0,0.0224,0.0243,0.0267,0.0258,0.0235,0.0234,0.0223,0.0182,0.0185,0.0187,0.0197,0.0221,0.0198,0.026,0.0285,0.0348,0.0301,0.0318,0.0385,0.0455,0.0472,0.0487,0.0476,0.049,0.0316,0.0316,0.0316,0,0.0218,0.0237,0.0249,0.0258,0.0231,0.0239,0.0196,0.0161,0.019,0.0144,0.016,0.0149,0.0174,0.0202,0.0207,0.0186,0.0255,0.0208,0.0213,0.025,0.0322,0.0342,0.0359,0.0139,0.0138,0.0137,0,0,0.0222,0.0253,0.0241,0.0256,0.0241,0.0207,0.019,0.0172,0.0156,0.0148,0.0128,0.0132,0.0163,0.0157,0.0166,0.0169,0.0185,0.0186,0.0194,0.0201,0.024,0.0315,0.0333,0.0135,0.0135,0.0135,0,0,0.0207,0.0227,0.0232,0.0257,0.0233,0.0197,0.018,0.0163,0.0151,0.0145,0.0131,0.0127,0.0144,0.013,0.01,0.0151,0.012,0.0124,0.0146,0.0156,0.0165,0.0212,0.0067,0,0,0,0,0,0.0206,0.0228,0.0234,0.0236,0.0232,0.0202,0.0196,0.0173,0.0157,0.0148,0.0149,0.0117,0.0135,0.0108,0.0099,0.0117,0.0102,0.0108,0.0113,0.0144,0.0155,0.0165,0,0,0,0,0,0,0.0207,0.0213,0.0232,0.0205,0.0203,0.0202,0.0194,0.0187,0.0158,0.0156,0.0121,0.0117,0.011,0.0108,0.0102,0.0119,0.0069,0.0104,0.0109,0.0114,0.0148,0.0157,0.0165,0,0,0,0,0,0.0207,0.0212,0.0223,0.0203,0.0201,0.0172,0.0194,0.0188,0.0162,0.0143,0.0137,0.0145,0.011,0.0103,0.0104,0.0124,0.0074,0.0071,0.0107,0.0111,0.0115,0.0152,0,0,0,0,0,0,0.0208,0.0196,0.0221,0.0217,0.0205,0.017,0.017,0.019,0.0149,0.0143,0.0167,0.0166,0.011,0.0105,0.0099,0.0128,0.0077,0.0075,0.0073,0.011,0.0113,0.0116,0,0,0,0,0,0,0.0193,0.0194,0.0219,0.0224,0.0221,0.0169,0.0169,0.0144,0.0149,0.0176,0.0174,0.0167,0.0118,0.0106,0.0102,0.0064,0.008,0.0078,0.0076,0.0075,0.0113,0.0115,0,0,0,0,0,0,0.0192,0.0192,0.0225,0.0222,0.0219,0.0176,0.0145,0.0144,0.0154,0.0178,0.0154,0.0154,0.012,0.0115,0.0103,0.0068,0.0065,0.008,0.0078,0.0077,0.0077,0,0,0,0,0,0,0,0.0191,0.0207,0.0243,0.0221,0.0218,0.0183,0.0182,0.0181,0.0154,0.0154,0.0154,0.0154,0.0093,0.0091,0.0088,0.007,0,0,0.008,0.0079,0,0,0,0,0,0,0,0,0.0204,0.0206,0.0243,0.0242,0.0242,0.0183,0.0182,0.0181,0.0154,0.0154,0.0154,0.0154,0.0092,0.009,0.0088,0,0,0,0,0,0,0,0,0,0,0,0,0,0,0,0.0243,0.0242,0,0.0183,0.0182,0.0181,0.0154,0.0154,0.0154,0.0154,0.0092,0.009,0.0088,0,0,0,0,0,0,0,0,0,0,0,0,0,0,0,0,0,0,0,0,0,0,0,0,0,0,0,0,0,0,0,0,0,0,0,0,0,0,0,0,0,0,0,0,0,0,0,0,0,0,0,0,0,0,0,0,0,0,0,0,0,0,0,0,0,0,0,0,0]}]],[[{"header":{"parameterUnit":"kt","parameterCategory":2,"dx":1,"dy":1,"la1":30.253999710083008,"la2":30.299108505249023,"lo1":-89.0895004272461,"lo2":-89.04439544677734,"nx":28,"ny":28,"refTime":"2022-10-29T21:00:00:Z","depth":"4","parameterNumber":2,"parameterNumberName":"U-component_of_CURRENTS"},"data":[0.0992,0.0925,0.0821,0.0603,0.049,0.0354,0.0324,0.0353,0.0373,0.05,0.0566,0.0675,0.0798,0.0839,0.092,0.0946,0.0987,0.1155,0.1152,0.1283,0.1297,0.131,0.1195,0,0,0,0,0,0.1013,0.0937,0.0835,0.0671,0.0591,0.0517,0.0472,0.0472,0.0549,0.0564,0.0665,0.0734,0.0838,0.0929,0.0932,0.1058,0.1182,0.1055,0.1158,0.1292,0.1307,0.1191,0,0,0,0,0,0,0.1023,0.0982,0.0902,0.0781,0.0693,0.0568,0.0543,0.0514,0.0559,0.0737,0.075,0.0894,0.1024,0.1082,0.1151,0.119,0.1179,0.115,0.1173,0.1189,0.1073,0.0926,0.0907,0,0,0,0,0,0.1,0.1016,0.0926,0.081,0.0737,0.0634,0.0594,0.0623,0.07,0.0824,0.0899,0.0974,0.1063,0.1157,0.1237,0.1298,0.1432,0.1418,0.1426,0.1378,0.1289,0.1229,0.1218,0.1367,0.1369,0.1371,0.1371,0,0.102,0.0982,0.0854,0.0794,0.0719,0.0699,0.0669,0.072,0.0754,0.0917,0.0941,0.1099,0.1164,0.1246,0.1358,0.1444,0.144,0.1459,0.1407,0.1313,0.1252,0.1236,0.122,0.1384,0.1383,0.1382,0.1381,0,0.1027,0.0925,0.0814,0.0696,0.0658,0.0676,0.0642,0.069,0.0828,0.0912,0.097,0.1114,0.1218,0.1311,0.1474,0.1443,0.1505,0.1499,0.1548,0.1494,0.1255,0.1234,0.1405,0.14,0.1396,0.1393,0.139,0,0.0958,0.0876,0.0734,0.0669,0.0639,0.0582,0.064,0.0675,0.0787,0.0867,0.0984,0.1044,0.1197,0.1293,0.136,0.1404,0.1524,0.1393,0.1348,0.141,0.1388,0.138,0.1353,0.161,0.1609,0.1608,0.1608,0,0.0981,0.076,0.069,0.0621,0.0462,0.0503,0.0469,0.0579,0.0634,0.079,0.0876,0.1039,0.1117,0.1234,0.1314,0.1282,0.1478,0.1415,0.1317,0.1301,0.1365,0.1339,0.1607,0.1607,0.1606,0.1606,0.1606,0,0.0884,0.0756,0.0646,0.0497,0.0461,0.0412,0.0459,0.0448,0.0582,0.0659,0.0816,0.0864,0.1032,0.0998,0.1195,0.1123,0.1191,0.1217,0.1219,0.1039,0.0887,0.0926,0.1157,0.1153,0.115,0.1147,0.1144,0,0.092,0.0752,0.0641,0.05,0.0383,0.0307,0.0326,0.0334,0.0376,0.0457,0.0583,0.0698,0.0717,0.0796,0.0902,0.0954,0.1061,0.0958,0.1012,0.1014,0.0826,0.1006,0.1,0.1099,0.1105,0.1109,0.1112,0,0.0943,0.0683,0.0666,0.0582,0.0379,0.0281,0.0281,0.024,0.0303,0.0313,0.0429,0.0592,0.0654,0.0703,0.0711,0.0803,0.0983,0.0771,0.0772,0.0783,0.1144,0.0968,0.0977,0.0971,0.0977,0.0982,0.1081,0,0.0842,0.0728,0.0672,0.0489,0.0401,0.0271,0.0143,0.013,0.0126,0.0118,0.027,0.0284,0.04,0.0456,0.0452,0.0653,0.0602,0.0562,0.0483,0.0635,0.065,0.0675,0.0341,0.0339,0.0336,0.0335,0,0,0.0902,0.0742,0.0603,0.0499,0.0407,0.0228,0.0137,0.0068,-0.0085,-0.0022,-0.0043,0.011,0.0135,0.0272,0.0355,0.0326,0.0343,0.0341,0.0549,0.0573,0.0595,0.0619,0.0645,0.0331,0.033,0.0329,0.0329,0,0.0822,0.072,0.065,0.052,0.0322,0.0197,0.0162,-0.0034,-0.0052,-0.0082,-0.0072,0.0025,0.0041,0.0107,0.0146,0.0275,0.0275,0.0322,0.044,0.0527,0.0553,0.0577,0.0606,0.0631,0.0323,0.0324,0.0324,0,0.0803,0.0663,0.0614,0.0388,0.0264,0.0141,0.0057,-0.0075,-0.0123,-0.0179,-0.0186,-0.0142,-0.0112,-0.0033,0.0005,-0.0041,0.0175,0.0093,0.0106,0.0141,0.0226,0.0257,0.0285,-0.0071,-0.0073,-0.0074,0,0,0.076,0.0674,0.0437,0.0353,0.0276,0.0097,0.0018,-0.0069,-0.0172,-0.0196,-0.0217,-0.0191,-0.0136,-0.0127,-0.01,-0.0064,-0.0054,0.0046,0.0065,0.008,0.0122,0.0213,0.0243,-0.0078,-0.0079,-0.0079,0,0,0.0728,0.0488,0.0439,0.0326,0.0161,-0.0061,-0.0099,-0.0177,-0.023,-0.0202,-0.024,-0.0243,-0.0169,-0.0193,-0.0257,-0.0062,-0.0138,-0.0129,-0.0054,-0.0031,-0.0013,0.0036,-0.0254,0,0,0,0,0,0.055,0.0508,0.0466,0.042,0.0158,-0.0044,-0.0077,-0.0181,-0.018,-0.0213,-0.0232,-0.0224,-0.0203,-0.0263,-0.0268,-0.0135,-0.0138,-0.0128,-0.0118,-0.001,0.0014,0.0035,0,0,0,0,0,0,0.053,0.0475,0.0465,0.0242,0.018,-0.0042,-0.0065,-0.0093,-0.0178,-0.0182,-0.0225,-0.0225,-0.0243,-0.026,-0.0265,-0.0136,-0.0252,-0.0134,-0.0125,-0.0117,-0.0002,0.0018,0.0035,0,0,0,0,0,0.0514,0.0469,0.0082,0.0242,0.0189,0.0023,-0.0061,-0.0085,-0.0136,-0.0202,-0.0208,-0.0209,-0.0244,-0.0247,-0.0263,-0.0131,-0.0249,-0.025,-0.0128,-0.0121,-0.0115,0.0008,0,0,0,0,0,0,0.0501,0.0463,0.0069,0.0048,0.0267,0.0035,-0.0002,-0.0078,-0.0148,-0.0163,-0.0184,-0.0185,-0.0246,-0.0247,-0.0249,-0.0124,-0.0246,-0.0248,-0.0249,-0.0123,-0.0117,-0.0112,0,0,0,0,0,0,0.0484,0.0446,0.0059,0.0097,0.008,0.0046,0.0013,-0.0011,-0.014,-0.012,-0.0129,-0.0183,-0.0191,-0.0248,-0.0249,-0.0288,-0.0244,-0.0246,-0.0247,-0.0248,-0.0118,-0.0114,0,0,0,0,0,0,0.0466,0.0433,0.0102,0.0089,0.0075,-0.0159,0.0032,-0.0189,-0.0236,-0.0109,-0.0232,-0.023,-0.0188,-0.0194,-0.025,-0.0288,-0.0288,-0.0244,-0.0245,-0.0246,-0.0247,0,0,0,0,0,0,0,0.0451,0.0701,0.0179,0.0083,0.0071,-0.015,-0.0154,-0.0158,-0.0236,-0.0234,-0.0232,-0.0231,-0.0235,-0.0236,-0.0238,-0.0287,0,0,-0.0244,-0.0245,0,0,0,0,0,0,0,0,0.0712,0.0703,0.0179,0.0173,0.0168,-0.015,-0.0154,-0.0157,-0.0236,-0.0234,-0.0233,-0.0231,-0.0235,-0.0237,-0.0238,0,0,0,0,0,0,0,0,0,0,0,0,0,0,0,0.0178,0.0174,0,-0.0151,-0.0154,-0.0157,-0.0235,-0.0234,-0.0233,-0.0232,-0.0235,-0.0237,-0.0238,0,0,0,0,0,0,0,0,0,0,0,0,0,0,0,0,0,0,0,0,0,0,0,0,0,0,0,0,0,0,0,0,0,0,0,0,0,0,0,0,0,0,0,0,0,0,0,0,0,0,0,0,0,0,0,0,0,0,0,0,0,0,0,0,0,0,0,0,0]}],[{"header":{"parameterUnit":"kt","parameterCategory":2,"dx":1,"dy":1,"la1":30.253999710083008,"la2":30.299108505249023,"lo1":-89.0895004272461,"lo2":-89.04439544677734,"nx":28,"ny":28,"refTime":"2022-10-29T21:00:00:Z","depth":"4","parameterNumber":3,"parameterNumberName":"V-component_of_CURRENTS"},"data":[0.0425,0.0497,0.0559,0.0716,0.0825,0.0995,0.1112,0.12,0.1204,0.1292,0.1206,0.1225,0.1067,0.1197,0.0913,0.0886,0.0836,0.0737,0.0733,0.07,0.0708,0.0716,0.0791,0,0,0,0,0,0.0432,0.0479,0.0589,0.0746,0.0889,0.0995,0.1174,0.127,0.1398,0.1367,0.1417,0.1309,0.1137,0.109,0.0939,0.0968,0.0825,0.0785,0.0757,0.0705,0.0715,0.0784,0,0,0,0,0,0,0.0447,0.0492,0.0599,0.0745,0.0902,0.1043,0.1147,0.1274,0.1363,0.1463,0.1441,0.1363,0.1348,0.1158,0.1027,0.0896,0.085,0.079,0.0795,0.0802,0.0868,0.0923,0.0751,0,0,0,0,0,0.0477,0.0523,0.0621,0.0777,0.0925,0.108,0.1273,0.132,0.1484,0.1539,0.1522,0.1438,0.1318,0.1183,0.1045,0.0905,0.0892,0.0816,0.082,0.0846,0.0883,0.0861,0.0876,0.075,0.0751,0.0752,0.0752,0,0.0496,0.0551,0.0745,0.083,0.094,0.1118,0.124,0.1414,0.1486,0.1561,0.1568,0.1521,0.1494,0.1231,0.1148,0.0947,0.0923,0.0841,0.087,0.09,0.0872,0.0886,0.0899,0.076,0.0759,0.0758,0.0758,0,0.0511,0.0615,0.0748,0.0954,0.1028,0.1134,0.1353,0.1428,0.1514,0.1557,0.1578,0.1586,0.1489,0.1398,0.1237,0.1151,0.1003,0.0942,0.1094,0.1063,0.0906,0.0917,0.0772,0.0769,0.0767,0.0765,0.0763,0,0.0572,0.0668,0.0847,0.091,0.1049,0.1197,0.1314,0.1399,0.1491,0.1552,0.1574,0.1556,0.1495,0.1418,0.1332,0.118,0.1185,0.1065,0.1022,0.1148,0.1157,0.1117,0.1123,0.1075,0.1076,0.1077,0.1078,0,0.0554,0.0753,0.085,0.0915,0.1112,0.1186,0.1302,0.141,0.1468,0.1516,0.1552,0.1527,0.1511,0.142,0.1354,0.1366,0.1205,0.1188,0.107,0.1066,0.1125,0.113,0.108,0.108,0.108,0.108,0.1081,0,0.0604,0.0703,0.0837,0.1011,0.1057,0.1162,0.1281,0.1368,0.1448,0.1498,0.153,0.1546,0.1513,0.1503,0.139,0.1437,0.1366,0.1303,0.1295,0.1235,0.12,0.1194,0.1195,0.1197,0.1198,0.12,0.1201,0,0.0553,0.0696,0.0772,0.0929,0.1021,0.1107,0.1191,0.1298,0.1373,0.1445,0.1443,0.151,0.1526,0.1535,0.1489,0.143,0.137,0.1436,0.1267,0.1262,0.1206,0.1192,0.1363,0.1222,0.1219,0.1217,0.1216,0,0.0503,0.0666,0.0686,0.076,0.0911,0.0985,0.1082,0.1196,0.1245,0.1378,0.1423,0.1501,0.1516,0.1522,0.1495,0.1443,0.1396,0.1432,0.1428,0.1358,0.1263,0.1222,0.1205,0.1371,0.1369,0.1368,0.123,0,0.0535,0.0611,0.0653,0.0772,0.0845,0.0938,0.103,0.1111,0.1194,0.1274,0.1357,0.1387,0.1447,0.1461,0.1468,0.1451,0.1435,0.1415,0.136,0.1384,0.1323,0.1312,0.143,0.1429,0.1429,0.1428,0,0,0.0464,0.0543,0.0589,0.067,0.0739,0.0811,0.09,0.096,0.1108,0.1151,0.1194,0.1321,0.1351,0.1358,0.1404,0.1417,0.1381,0.1415,0.1391,0.1388,0.1384,0.1326,0.1317,0.1427,0.1427,0.1426,0.1426,0,0.0471,0.0509,0.0558,0.0629,0.0737,0.08,0.0826,0.0957,0.1007,0.1131,0.1154,0.1207,0.1326,0.1329,0.1338,0.1405,0.1363,0.1438,0.1451,0.1388,0.1385,0.1382,0.1325,0.1317,0.1424,0.1425,0.1425,0,0.0445,0.0501,0.0524,0.0622,0.0687,0.0775,0.0788,0.0883,0.0952,0.0978,0.111,0.1155,0.1181,0.1262,0.1297,0.1271,0.1313,0.1341,0.1346,0.1345,0.1277,0.1275,0.1273,0.1285,0.1284,0.1284,0,0,0.0449,0.0489,0.0582,0.063,0.067,0.0754,0.0803,0.0864,0.0943,0.098,0.1055,0.1113,0.1157,0.1185,0.1248,0.1295,0.1249,0.1324,0.1331,0.1336,0.1339,0.1273,0.1272,0.1282,0.1282,0.1282,0,0,0.0459,0.0549,0.0567,0.0629,0.0705,0.0806,0.0854,0.0891,0.0969,0.0989,0.103,0.1048,0.1138,0.1145,0.1118,0.1231,0.1204,0.121,0.1224,0.1233,0.1239,0.1232,0.1122,0,0,0,0,0,0.0497,0.0531,0.0545,0.0566,0.069,0.0785,0.0805,0.0887,0.0901,0.0938,0.1001,0.1004,0.1153,0.113,0.1141,0.1176,0.1259,0.1263,0.1267,0.1298,0.1307,0.1314,0,0,0,0,0,0,0.0506,0.0528,0.0546,0.0641,0.0671,0.0784,0.0812,0.0834,0.09,0.091,0.0993,0.1006,0.1041,0.1125,0.1134,0.1168,0.1119,0.126,0.1264,0.1267,0.1301,0.1308,0.1315,0,0,0,0,0,0.0513,0.0532,0.0706,0.0643,0.0668,0.0782,0.0812,0.0831,0.0887,0.0956,0.0972,0.095,0.1039,0.1052,0.113,0.1163,0.1112,0.1116,0.1262,0.1265,0.1268,0.1305,0,0,0,0,0,0,0.0519,0.0547,0.0713,0.0725,0.0648,0.078,0.0801,0.0828,0.0929,0.0947,0.0912,0.0918,0.1038,0.1048,0.1058,0.1162,0.1107,0.1111,0.1113,0.1265,0.1267,0.1269,0,0,0,0,0,0,0.0539,0.0556,0.0719,0.0722,0.0734,0.0777,0.0796,0.0829,0.0928,0.0878,0.0888,0.0913,0.1015,0.1045,0.1053,0.1102,0.1103,0.1106,0.1109,0.111,0.1266,0.1268,0,0,0,0,0,0,0.0548,0.0563,0.0719,0.0729,0.074,0.0876,0.0807,0.0922,0.0953,0.0871,0.0957,0.0958,0.101,0.102,0.1049,0.1095,0.1101,0.1103,0.1105,0.1107,0.1108,0,0,0,0,0,0,0,0.0555,0.0429,0.0648,0.0734,0.0744,0.0835,0.0838,0.0841,0.0954,0.0955,0.0956,0.0958,0.1083,0.1087,0.109,0.1089,0,0,0.1102,0.1104,0,0,0,0,0,0,0,0,0.0425,0.0428,0.0648,0.0651,0.0653,0.0836,0.0838,0.084,0.0954,0.0955,0.0956,0.0957,0.1084,0.1087,0.109,0,0,0,0,0,0,0,0,0,0,0,0,0,0,0,0.0648,0.065,0,0.0836,0.0838,0.084,0.0954,0.0955,0.0956,0.0957,0.1085,0.1087,0.109,0,0,0,0,0,0,0,0,0,0,0,0,0,0,0,0,0,0,0,0,0,0,0,0,0,0,0,0,0,0,0,0,0,0,0,0,0,0,0,0,0,0,0,0,0,0,0,0,0,0,0,0,0,0,0,0,0,0,0,0,0,0,0,0,0,0,0,0,0]}]]]